Location: Bauerbach
(50.4985°N, 10.3912°E)
Time: 18:04:56
(UTC+00:00)

Cosmos 1743 Rocket - Pass Details

Date: 13 January 2026
Orbit: 597 x 626 km, 82.6° (Epoch: 16 February)

Event Time Altitude Azimuth Distance (km) Brightness Sun altitude
Rises 05:10:13 0° 176° (S) 2,900 7.2 -19.0°
Reaches altitude 10° 05:12:28 10° 172° (S) 1,997 6.4 -18.7°
Maximum altitude 05:16:47 55° 95° (E) 758 4.3 -18.0°
Drops below altitude 10° 05:21:08 10° 18° (NNE) 2,004 6.2 -17.3°
Sets 05:23:24 0° 14° (NNE) 2,912 7.0 -17.0°
